1521964800.89,55147,10.81,72520.3,0.79,-34.89,-35.83,0,*4A
1521964802.12,55148,10.81,72516.5,0.79,-34.13,-34.89,0,*4D
1521964803.36,55149,10.81,72518.8,0.79,-34.59,-35.47,0,*41
1521964804.56,55150,10.81,72516.5,0.77,-34.41,-35.29,0,*46
1521964805.79,55151,10.81,72516.3,0.77,-34.25,-35.07,0,*49
1521964807.01,55152,10.81,72518.3,0.73,-34.47,-35.41,0,*48
1521964808.22,55153,10.81,72520.3,0.73,-34.83,-35.71,0,*42
1521964809.44,55154,10.81,72516.8,0.73,-34.59,-35.35,0,*42
1521964810.64,55155,10.81,72514.3,0.73,-35.13,-35.89,0,*4B
1521964811.84,55156,10.81,72512.8,0.69,-34.89,-35.77,0,*40
1521964813.09,55157,10.81,72518.3,0.67,-34.95,-35.89,0,*43
1521964814.35,55158,10.81,72516.3,0.69,-35.07,-35.95,0,*45
1521964815.6,55159,10.81,72518.8,0.69,-35.07,-35.95,0,*44
1521964816.86,55160,10.81,72518.5,0.67,-34.53,-35.29,0,*47
1521964818.11,55161,10.81,72516.5,0.67,-34.95,-36.01,0,*45
1521964819.36,55162,10.88,72518.5,0.67,-34.77,-35.65,0,*4B
1521964820.55,55163,10.81,72518.5,0.65,-34.89,-35.77,0,*4A
1521964821.77,55164,10.81,72516.0,0.65,-34.77,-35.65,0,*4F
1521964823.02,55165,10.81,72518.5,0.63,-34.59,-35.35,0,*41
1521964824.25,55166,10.81,72516.5,0.63,-35.01,-35.89,0,*49
1521964825.47,55167,10.81,72518.5,0.63,-34.77,-35.71,0,*4F
1521964826.71,55168,10.88,72520.3,0.63,-34.95,-35.71,0,*4C
1521964827.9,55169,10.81,72516.5,0.65,-34.77,-35.59,0,*4D
1521964829.12,55170,10.81,72518.0,0.61,-34.41,-35.35,0,*4E
1521964830.34,55171,10.81,72520.3,0.61,-34.65,-35.47,0,*4C
1521964831.55,55172,10.81,72516.5,0.61,-34.59,-35.47,0,*40
1521964832.76,55173,10.81,72516.8,0.61,-34.41,-35.35,0,*4D
1521964833.98,55174,10.81,72516.5,0.61,-34.41,-35.35,0,*4A
1521964835.2,55175,10.81,72518.5,0.61,-34.35,-35.29,0,*45
1521964836.44,55176,10.88,72520.5,0.61,-34.35,-35.35,0,*4B
1521964837.72,55177,10.81,72516.5,0.59,-34.53,-35.53,0,*41
1521964838.94,55178,10.88,72520.5,0.61,-34.65,-35.71,0,*40
1521964840.18,55179,10.88,72518.5,0.59,-34.41,-35.41,0,*4F
1521964841.43,55180,10.81,72516.8,0.59,-34.47,-35.35,0,*4C
1521964842.67,55181,10.88,72520.5,0.59,-34.47,-35.23,0,*4A
1521964843.94,55182,10.81,72516.0,0.59,-34.53,-35.35,0,*4B
1521964845.18,55183,10.81,72516.5,0.59,-34.31,-35.17,0,*4E
1521964846.45,55184,10.81,72516.5,0.59,-34.31,-35.07,0,*48
1521964847.64,55185,10.88,72518.5,0.61,-33.55,-34.59,0,*4D
1521964848.85,55186,10.81,72518.3,0.59,-33.55,-34.47,0,*4A
1521964850.06,55187,10.88,72516.8,0.59,-33.37,-34.25,0,*4B
1521964851.25,55188,10.81,72514.5,0.61,-33.55,-34.47,0,*4F
1521964852.46,55189,10.81,72516.3,0.61,-33.49,-34.41,0,*45
1521964853.66,55190,10.88,72518.3,0.61,-33.37,-34.07,0,*46
1521964854.88,55191,10.88,72516.5,0.61,-33.83,-34.65,0,*4C
1521964856.12,55192,10.88,72518.0,0.61,-34.01,-34.83,0,*4A
1521964857.34,55193,10.88,72520.5,0.61,-33.73,-34.47,0,*41
1521964858.59,55194,10.88,72516.0,0.61,-33.89,-34.95,0,*4C
1521964859.81,55195,10.88,72518.8,0.61,-33.83,-34.65,0,*48
1521964861.0,55196,10.88,72520.3,0.61,-33.21,-34.07,0,*47
1521964862.21,55197,10.88,72520.0,0.61,-33.37,-34.35,0,*40
1521964863.43,55198,10.81,72518.5,0.61,-34.19,-35.01,0,*42
1521964864.7,55199,10.88,72522.5,0.63,-34.19,-34.95,0,*4D
1521964865.98,55200,10.88,72522.0,0.63,-33.73,-34.65,0,*4A
1521964867.22,55201,10.88,72520.8,0.59,-34.13,-35.07,0,*46
1521964868.44,55202,10.88,72518.8,0.61,-34.01,-34.77,0,*4B
1521964869.69,55203,10.88,72520.0,0.63,-33.73,-34.47,0,*49
1521964870.92,55204,10.88,72520.0,0.63,-34.07,-35.01,0,*49
1521964872.13,55205,10.88,72516.5,0.63,-34.25,-35.01,0,*48
1521964873.35,55206,10.88,72518.8,0.59,-33.95,-34.71,0,*48
1521964874.57,55207,10.88,72518.8,0.61,-33.73,-34.59,0,*40
1521964875.79,55208,10.88,72518.8,0.61,-33.73,-34.47,0,*40
1521964877.01,55209,10.88,72518.3,0.61,-33.73,-34.77,0,*42
1521964878.27,55210,10.88,72518.8,0.59,-33.89,-34.83,0,*4F
1521964879.47,55211,10.88,72516.8,0.61,-33.67,-34.47,0,*4D
1521964880.68,55212,10.88,72516.0,0.61,-33.31,-34.07,0,*49
1521964881.92,55213,10.88,72518.0,0.61,-33.09,-33.89,0,*42
1521964883.11,55214,10.88,72516.5,0.61,-33.21,-34.25,0,*4E
1521964884.32,55215,10.88,72518.0,0.65,-33.31,-34.13,0,*4F
1521964885.56,55216,10.88,72520.0,0.63,-32.63,-33.21,0,*4A
1521964886.78,55217,10.88,72516.3,0.65,-32.69,-33.43,0,*43
1521964887.99,55218,10.88,72518.3,0.63,-32.91,-33.83,0,*41
1521964889.17,55219,10.88,72520.8,0.65,-33.15,-34.13,0,*45
1521964890.39,55220,10.81,72516.3,0.65,-32.85,-33.67,0,*43
1521964891.63,55221,10.88,72518.5,0.65,-32.85,-33.77,0,*43
1521964892.9,55222,10.88,72520.5,0.67,-33.27,-34.01,0,*4D
1521964894.14,55223,10.88,72518.8,0.67,-32.91,-33.77,0,*46
1521964895.32,55224,10.88,72522.8,0.69,-33.21,-33.95,0,*49
1521964896.52,55225,10.88,72520.5,0.69,-32.69,-33.55,0,*49
1521964897.75,55226,10.88,72518.8,0.69,-32.97,-33.77,0,*4B
1521964898.99,55227,10.88,72518.0,0.69,-32.97,-33.73,0,*4E
1521964900.22,55228,10.88,72516.5,0.77,-32.69,-33.61,0,*4C
1521964901.45,55229,10.88,72516.5,0.77,-32.51,-33.27,0,*44
1521964902.7,55230,10.88,72520.0,0.77,-32.75,-33.61,0,*48
1521964903.93,55231,10.88,72518.5,0.77,-32.69,-33.43,0,*44
1521964905.16,55232,10.88,72518.5,0.79,-32.35,-33.15,0,*43
1521964906.38,55233,10.88,72522.5,0.79,-32.91,-33.83,0,*43
1521964907.6,55234,10.88,72516.8,0.81,-33.03,-33.89,0,*43
1521964908.83,55235,10.88,72520.3,0.81,-33.03,-33.89,0,*42
1521964910.1,55236,10.88,72520.8,0.79,-33.31,-34.19,0,*49
1521964911.37,55237,10.88,72520.5,0.79,-33.31,-34.31,0,*42
1521964912.63,55238,10.88,72520.3,0.79,-33.67,-34.53,0,*4A
1521964913.86,55239,10.88,72518.0,0.81,-33.61,-34.47,0,*4F
1521964915.08,55240,10.88,72516.0,0.81,-33.09,-33.95,0,*47
1521964916.34,55241,10.88,72520.5,0.81,-32.63,-33.27,0,*42
1521964917.57,55242,10.88,72518.3,0.79,-32.23,-32.91,0,*4E
1521964918.81,55243,10.88,72518.3,0.81,-31.85,-32.51,0,*4B
1521964920.04,55244,10.88,72516.5,0.81,-32.13,-32.85,0,*49
1521964921.27,55245,10.88,72518.3,0.85,-32.23,-32.85,0,*4F
1521964922.49,55246,10.88,72518.5,0.85,-32.29,-33.15,0,*4E
1521964923.72,55247,10.88,72520.8,0.85,-32.39,-33.31,0,*48
1521964924.96,55248,10.88,72518.8,0.87,-32.29,-33.03,0,*45
1521964926.19,55249,10.88,72520.3,0.89,-32.79,-33.67,0,*4D
1521964927.45,55250,10.88,72516.0,0.89,-32.45,-33.27,0,*4E
1521964928.64,55251,10.88,72520.8,0.89,-32.91,-33.83,0,*48
1521964929.89,55252,10.88,72518.5,0.87,-32.85,-33.83,0,*40
1521964931.14,55253,10.88,72518.8,0.89,-32.19,-32.97,0,*4E
1521964932.38,55254,10.88,72522.0,0.89,-32.69,-33.43,0,*46
1521964933.6,55255,10.88,72520.0,0.89,-32.23,-32.79,0,*41
1521964934.86,55256,10.88,72520.5,0.91,-31.79,-32.45,0,*48
1521964936.05,55257,10.88,72520.3,0.93,-32.35,-33.21,0,*43
1521964937.31,55258,10.88,72522.5,0.91,-32.75,-33.55,0,*49
1521964938.56,55259,10.88,72520.5,0.93,-32.75,-33.61,0,*4D
1521964939.76,55260,10.88,72516.5,0.93,-33.21,-34.13,0,*45
1521964941.04,55261,10.88,72520.0,0.91,-33.43,-34.31,0,*42
1521964942.33,55262,10.88,72518.0,0.91,-33.73,-34.53,0,*46
1521964943.61,55263,10.88,72516.5,0.91,-33.89,-34.65,0,*47
1521964944.87,55264,10.88,72520.5,0.93,-33.73,-34.53,0,*42
1521964946.13,55265,10.88,72518.3,0.91,-34.01,-35.01,0,*45
1521964947.39,55266,10.88,72520.3,0.91,-33.73,-34.47,0,*47
1521964948.65,55267,10.88,72522.3,0.91,-33.77,-34.47,0,*42
1521964949.88,55268,10.88,72516.5,0.91,-33.37,-34.13,0,*48
1521964951.11,55269,10.88,72522.3,0.93,-33.37,-34.31,0,*4B
1521964952.38,55270,10.88,72516.0,0.91,-33.43,-34.19,0,*48
1521964953.67,55271,10.88,72520.0,0.91,-33.77,-34.65,0,*45
1521964954.94,55272,10.88,72518.5,0.91,-33.61,-34.53,0,*44
1521964956.17,55273,10.88,72520.0,0.89,-33.67,-34.53,0,*4A
1521964957.4,55274,10.88,72516.8,0.89,-33.31,-34.07,0,*4F
1521964958.62,55275,10.88,72516.8,0.87,-33.15,-34.07,0,*46
1521964959.87,55276,10.88,72522.0,0.91,-32.91,-33.77,0,*4F
1521964961.15,55277,10.88,72518.0,0.91,-33.09,-33.89,0,*4F
1521964962.37,55278,10.88,72520.0,0.91,-33.03,-33.95,0,*47
1521964963.61,55279,10.88,72520.8,0.93,-33.21,-34.01,0,*4E
1521964964.83,55280,10.88,72518.5,0.93,-32.91,-33.89,0,*45
1521964966.06,55281,10.88,72516.3,0.91,-33.37,-34.47,0,*4E
1521964967.31,55282,10.88,72516.8,0.91,-33.95,-34.83,0,*4D
1521964968.59,55283,10.88,72518.5,0.91,-33.89,-34.53,0,*4C
1521964969.87,55284,10.88,72518.0,0.91,-34.31,-35.23,0,*49
1521964971.1,55285,10.88,72516.3,0.89,-34.59,-35.65,0,*4D
1521964972.35,55286,10.88,72520.3,0.87,-33.89,-34.77,0,*48
1521964973.63,55287,10.88,72516.5,0.87,-34.31,-35.23,0,*4D
1521964974.88,55288,10.94,72526.0,0.87,-34.01,-34.89,0,*40
1521964976.13,55289,10.88,72516.8,0.87,-33.89,-34.77,0,*47
1521964977.36,55290,10.88,72518.8,0.87,-34.25,-35.13,0,*4D
1521964978.57,55291,10.88,72520.8,0.85,-34.07,-35.01,0,*4D
1521964979.78,55292,10.88,72516.8,0.85,-33.67,-34.47,0,*4C
1521964980.99,55293,10.88,72520.0,0.85,-33.67,-34.47,0,*4D
1521964982.23,55294,10.88,72520.3,0.87,-33.49,-34.25,0,*40
1521964983.48,55295,10.88,72518.8,0.87,-33.37,-34.31,0,*4D
1521964984.73,55296,10.88,72518.0,0.87,-32.97,-33.83,0,*4B
1521964985.98,55297,10.94,72518.5,0.87,-32.63,-33.55,0,*4A
1521964987.21,55298,10.88,72518.8,0.89,-32.57,-33.43,0,*4B
1521964988.5,55299,10.88,72518.8,0.91,-32.63,-33.43,0,*44
1521964989.73,55300,10.94,72518.5,0.89,-32.79,-33.67,0,*41
1521964991.01,55301,10.88,72516.3,0.91,-32.85,-33.77,0,*4B
1521964992.28,55302,10.94,72518.5,0.91,-32.85,-33.61,0,*4F
1521964993.53,55303,10.88,72516.0,0.91,-32.91,-33.89,0,*4D
1521964994.81,55304,10.88,72518.3,0.91,-32.85,-33.73,0,*4A
1521964996.04,55305,10.88,72516.0,0.93,-33.61,-34.47,0,*42
1521964997.32,55306,10.94,72518.3,0.91,-33.77,-34.53,0,*41
1521964998.55,55307,10.94,72520.3,0.91,-33.95,-34.89,0,*4B
1521964999.78,55308,10.94,72520.3,0.93,-34.31,-35.29,0,*44
1521965001.04,55309,10.88,72518.3,0.91,-33.89,-34.71,0,*4F
1521965002.31,55310,10.94,72522.5,0.91,-33.77,-34.83,0,*4B
1521965003.54,55311,10.94,72520.3,0.89,-34.35,-35.17,0,*4E
1521965004.83,55312,10.94,72518.3,0.91,-33.73,-34.53,0,*40
1521965006.07,55313,10.88,72520.0,0.91,-33.55,-34.35,0,*45
1521965007.33,55314,10.94,72522.0,0.91,-33.37,-34.19,0,*48
1521965008.53,55315,10.88,72518.8,0.89,-33.83,-34.59,0,*4B
1521965009.75,55316,10.94,72518.5,0.89,-33.15,-34.01,0,*4A
1521965010.98,55317,10.94,72520.3,0.89,-33.83,-34.53,0,*43
1521965012.23,55318,10.94,72518.8,0.89,-33.77,-34.53,0,*47
1521965013.5,55319,10.94,72518.5,0.87,-33.43,-34.19,0,*41
1521965014.72,55320,10.94,72518.3,0.89,-33.49,-34.41,0,*42
1521965015.95,55321,10.94,72518.0,0.91,-33.21,-34.13,0,*43
1521965017.23,55322,10.94,72520.8,0.91,-33.61,-34.53,0,*40
1521965018.48,55323,10.88,72516.3,0.91,-33.77,-34.89,0,*41
1521965019.71,55324,10.94,72520.5,0.89,-33.77,-34.59,0,*42
1521965020.98,55325,10.94,72518.0,0.87,-33.49,-34.31,0,*4E
1521965022.23,55326,10.94,72520.5,0.89,-33.61,-34.53,0,*4D
1521965023.46,55327,10.94,72516.3,0.89,-34.07,-35.07,0,*4B
1521965024.71,55328,10.94,72520.3,0.89,-34.01,-34.95,0,*48
1521965025.91,55329,10.94,72516.5,0.89,-33.95,-34.89,0,*4E
1521965027.19,55330,10.94,72518.0,0.91,-33.89,-34.65,0,*40
1521965028.47,55331,10.94,72516.5,0.91,-33.43,-34.31,0,*46
1521965029.71,55332,10.94,72520.3,0.89,-33.49,-34.35,0,*42
1521965030.96,55333,10.94,72522.8,0.89,-33.31,-34.19,0,*42
1521965032.15,55334,10.94,72518.3,0.89,-32.91,-33.83,0,*4A
1521965033.41,55335,10.94,72522.0,0.89,-33.09,-34.01,0,*46
1521965034.68,55336,10.94,72518.8,0.91,-33.27,-34.31,0,*43
1521965035.95,55337,10.94,72516.3,0.91,-32.69,-33.43,0,*4B
1521965037.2,55338,10.94,72518.8,0.91,-32.91,-33.77,0,*44
1521965038.45,55339,10.94,72516.3,0.93,-32.85,-33.77,0,*42
1521965039.7,55340,10.94,72516.8,0.91,-33.37,-34.19,0,*49
1521965040.95,55341,10.94,72516.5,0.97,-32.97,-33.73,0,*4E
1521965042.19,55342,10.94,72516.8,0.93,-32.69,-33.43,0,*4B
1521965043.42,55343,10.94,72522.3,0.97,-32.63,-33.55,0,*43
1521965044.62,55344,10.94,72518.5,0.97,-32.39,-33.21,0,*48
1521965045.84,55345,10.94,72518.5,0.97,-32.29,-33.03,0,*48
1521965047.07,55346,10.94,72516.3,0.97,-32.13,-32.97,0,*4E
1521965048.35,55347,10.94,72516.3,0.99,-31.91,-32.63,0,*43
1521965049.63,55348,10.94,72518.0,0.99,-32.45,-33.31,0,*40
1521965050.86,55349,10.94,72516.5,1.01,-32.51,-33.27,0,*73
1521965052.08,55350,10.94,72520.3,1.03,-32.35,-33.15,0,*7A
1521965053.34,55351,10.94,72518.3,1.03,-32.57,-33.43,0,*7C
1521965054.58,55352,10.94,72516.5,1.01,-32.79,-33.83,0,*7D
1521965055.82,55353,10.94,72520.3,1.03,-32.91,-33.77,0,*73
1521965057.07,55354,10.94,72520.5,1.01,-33.27,-34.19,0,*75
1521965058.35,55355,10.94,72518.8,1.03,-32.63,-33.49,0,*75
1521965059.57,55356,10.94,72516.3,1.03,-32.91,-33.83,0,*7D
1521965060.83,55357,10.94,72516.5,1.03,-32.51,-33.43,0,*7C
1521965062.06,55358,10.94,72516.8,1.05,-32.19,-33.03,0,*7D
1521965063.33,55359,10.94,72518.3,1.07,-32.01,-32.85,0,*78
1521965064.57,55360,10.94,72516.8,1.07,-32.13,-33.03,0,*7E
1521965065.83,55361,10.94,72516.3,1.07,-31.61,-32.35,0,*7D
1521965067.09,55362,10.94,72518.3,1.07,-31.79,-32.85,0,*7C
1521965068.35,55363,10.94,72522.3,1.11,-32.19,-32.97,0,*7C
1521965069.58,55364,10.94,72518.3,1.11,-32.39,-33.31,0,*74
1521965070.82,55365,10.94,72518.8,1.11,-32.39,-33.31,0,*75
1521965072.02,55366,10.94,72522.3,1.11,-32.35,-33.15,0,*7C
1521965073.24,55367,10.94,72522.3,1.11,-32.23,-32.97,0,*71
1521965074.5,55368,10.94,72522.0,1.11,-32.63,-33.49,0,*78
1521965075.76,55369,10.94,72520.0,1.13,-32.57,-33.49,0,*7C
1521965077.0,55370,10.94,72518.0,1.15,-32.39,-33.27,0,*72
1521965078.28,55371,10.94,72520.3,1.13,-33.09,-33.89,0,*73
1521965079.54,55372,10.94,72518.8,1.13,-32.97,-33.83,0,*7C
1521965080.82,55373,10.94,72516.8,1.13,-32.75,-33.61,0,*7D
1521965082.05,55374,10.94,72520.8,1.13,-33.15,-34.07,0,*7A
1521965083.3,55375,10.94,72516.8,1.13,-33.31,-34.07,0,*7D
1521965084.59,55376,10.94,72516.3,1.13,-33.09,-34.01,0,*73
1521965085.82,55377,10.94,72520.3,1.15,-33.09,-33.95,0,*7E
1521965087.08,55378,10.94,72520.0,1.13,-32.97,-33.83,0,*76
1521965088.34,55379,10.94,72516.5,1.13,-32.57,-33.49,0,*7D
1521965089.55,55380,10.94,72516.8,1.15,-32.39,-33.37,0,*7C
1521965090.77,55381,10.94,72522.0,1.15,-32.69,-33.55,0,*7C
1521965092.02,55382,10.94,72516.3,1.15,-32.29,-33.09,0,*72
1521965093.28,55383,10.94,72522.0,1.15,-32.19,-33.09,0,*70
1521965094.54,55384,10.94,72520.3,1.17,-31.95,-32.91,0,*72
1521965095.82,55385,10.94,72518.8,1.17,-32.29,-33.09,0,*77
1521965097.07,55386,10.94,72520.5,1.17,-32.29,-33.03,0,*7E
1521965098.3,55387,10.94,72522.0,1.21,-31.79,-32.69,0,*71
1521965099.55,55388,10.94,72516.5,1.21,-32.23,-32.97,0,*73
1521965100.81,55389,10.94,72518.5,1.21,-31.95,-32.69,0,*7D
1521965102.04,55390,10.94,72522.5,1.21,-31.79,-32.69,0,*77
1521965103.27,55391,10.94,72516.5,1.23,-32.57,-33.49,0,*78
1521965104.53,55392,10.94,72518.8,1.25,-32.57,-33.49,0,*7D
1521965105.81,55393,10.94,72516.8,1.25,-32.75,-33.49,0,*7C
1521965107.06,55394,10.94,72518.0,1.25,-32.57,-33.31,0,*74
1521965108.31,55395,10.94,72516.5,1.25,-32.39,-33.31,0,*7D
1521965109.59,55396,10.94,72518.5,1.25,-32.19,-32.97,0,*71
1521965110.84,55397,10.94,72518.8,1.25,-32.29,-33.15,0,*78
1521965112.08,55398,10.94,72518.0,1.27,-33.27,-34.31,0,*7B
1521965113.28,55399,10.94,72516.3,1.27,-33.21,-34.13,0,*7C
1521965114.53,55400,10.94,72522.0,1.25,-32.91,-33.73,0,*72
1521965115.76,55401,10.94,72522.8,1.27,-32.57,-33.49,0,*72
1521965117.04,55402,10.94,72520.8,1.25,-32.75,-33.49,0,*73
1521965118.24,55403,10.94,72518.3,1.27,-32.35,-33.37,0,*7D
1521965119.5,55404,10.94,72518.0,1.27,-32.85,-33.77,0,*75
1521965120.72,55405,10.94,72520.0,1.29,-32.91,-33.95,0,*73
1521965121.95,55406,10.94,72518.0,1.27,-32.69,-33.49,0,*78
1521965123.16,55407,10.94,72516.8,1.27,-32.57,-33.37,0,*7D
1521965124.39,55408,10.94,72520.5,1.29,-32.01,-32.91,0,*72
1521965125.61,55409,10.94,72516.8,1.29,-32.35,-33.21,0,*7E
1521965126.84,55410,11.0,72522.3,1.27,-32.35,-33.09,0,*72
1521965128.06,55411,10.94,72520.8,1.31,-32.29,-33.15,0,*74
1521965129.3,55412,10.94,72516.8,1.31,-32.69,-33.43,0,*70
1521965130.58,55413,10.94,72520.0,1.33,-31.95,-32.85,0,*78
1521965131.83,55414,10.94,72516.0,1.33,-32.45,-33.37,0,*79
1521965133.09,55415,11.0,72520.8,1.31,-32.45,-33.31,0,*7C
1521965134.35,55416,10.94,72522.0,1.33,-31.95,-32.69,0,*7F
1521965135.57,55417,10.94,72518.3,1.35,-32.29,-33.15,0,*76
1521965136.79,55418,10.94,72518.8,1.33,-32.35,-33.21,0,*75
1521965138.03,55419,10.94,72520.8,1.33,-32.29,-33.15,0,*7E
1521965139.29,55420,11.0,72522.0,1.35,-32.07,-32.79,0,*75
1521965140.54,55421,10.94,72516.8,1.35,-31.39,-32.29,0,*7F
1521965141.77,55422,10.94,72518.8,1.39,-31.51,-32.51,0,*71
1521965143.02,55423,10.94,72518.5,1.37,-32.35,-33.27,0,*7F
1521965144.28,55424,10.94,72518.3,1.37,-32.69,-33.49,0,*79
1521965145.54,55425,10.94,72518.3,1.37,-32.69,-33.43,0,*72
1521965146.8,55426,10.94,72520.0,1.37,-32.75,-33.67,0,*7A
1521965148.02,55427,10.94,72520.0,1.37,-32.35,-33.21,0,*7D
1521965149.27,55428,10.94,72516.3,1.37,-32.39,-33.31,0,*7F
1521965150.53,55429,10.94,72518.8,1.39,-32.75,-33.49,0,*77
1521965151.76,55430,11.0,72520.3,1.39,-32.51,-33.31,0,*76
1521965152.99,55431,11.0,72522.3,1.39,-33.09,-33.95,0,*75
1521965154.22,55432,10.94,72518.0,1.43,-33.21,-34.13,0,*78
1521965155.45,55433,11.0,72520.8,1.39,-32.69,-33.61,0,*7B
1521965156.68,55434,10.94,72518.3,1.39,-32.69,-33.61,0,*7C
1521965157.88,55435,11.0,72520.0,1.39,-32.35,-33.21,0,*70
1521965159.11,55436,11.0,72516.3,1.37,-32.23,-33.21,0,*7A
1521965160.37,55437,11.0,72520.0,1.39,-32.19,-33.09,0,*76
1521965161.62,55438,11.0,72520.5,1.43,-32.29,-33.21,0,*7D
1521965162.9,55439,11.0,72520.3,1.43,-31.95,-32.79,0,*74
1521965164.16,55440,11.0,72516.3,1.43,-32.19,-33.15,0,*76
1521965165.41,55441,10.94,72518.0,1.43,-32.19,-33.21,0,*70
1521965166.64,55442,10.94,72516.3,1.45,-32.63,-33.55,0,*7B
1521965167.88,55443,11.0,72516.5,1.45,-31.95,-32.69,0,*7E
1521965169.12,55444,11.0,72522.8,1.47,-32.39,-33.37,0,*74
1521965170.37,55445,10.94,72518.0,1.47,-32.45,-33.37,0,*7E
1521965171.57,55446,10.94,72516.3,1.45,-32.35,-33.15,0,*78
1521965172.83,55447,11.0,72520.0,1.47,-32.39,-33.31,0,*71
1521965174.11,55448,11.0,72518.8,1.47,-32.63,-33.49,0,*7E
1521965175.4,55449,11.0,72522.8,1.47,-31.95,-32.79,0,*77
1521965176.66,55450,11.0,72518.5,1.47,-32.07,-32.91,0,*71
1521965177.89,55451,11.0,72522.3,1.47,-32.39,-33.21,0,*77
1521965179.09,55452,11.0,72518.0,1.49,-31.67,-32.39,0,*7A
1521965180.36,55453,11.0,72516.8,1.51,-31.85,-32.69,0,*7B
1521965181.61,55454,11.0,72516.8,1.51,-31.61,-32.57,0,*7B
1521965182.9,55455,11.0,72516.5,1.51,-31.85,-32.75,0,*70
1521965184.15,55456,11.0,72518.0,1.53,-31.73,-32.45,0,*7B
1521965185.41,55457,11.0,72516.0,1.53,-31.95,-32.97,0,*7D
1521965186.65,55458,11.0,72518.8,1.53,-31.61,-32.51,0,*73
1521965187.9,55459,11.0,72518.5,1.55,-32.29,-33.21,0,*7D
1521965189.16,55460,11.0,72520.0,1.55,-32.51,-33.43,0,*7C
1521965190.36,55461,11.0,72516.3,1.53,-32.69,-33.55,0,*77
1521965191.6,55462,11.0,72516.5,1.55,-32.51,-33.37,0,*7D
1521965192.85,55463,11.0,72520.5,1.55,-32.29,-33.21,0,*74
1521965194.11,55464,11.0,72516.5,1.55,-31.85,-32.69,0,*7B
1521965195.4,55465,11.0,72522.0,1.55,-31.85,-32.79,0,*7B
1521965196.65,55466,11.0,72516.0,1.57,-31.95,-32.79,0,*7B
1521965197.88,55467,11.0,72516.0,1.57,-32.57,-33.49,0,*75
1521965199.08,55468,11.0,72518.3,1.57,-32.57,-33.37,0,*73
1521965200.31,55469,11.0,72516.5,1.57,-32.39,-33.31,0,*7C
1521965201.53,55470,11.0,72516.5,1.57,-32.23,-33.31,0,*7F
1521965202.75,55471,11.0,72518.0,1.57,-32.29,-33.03,0,*75
1521965203.98,55472,11.0,72518.8,1.59,-32.39,-33.21,0,*79
1521965205.23,55473,11.0,72522.0,1.59,-32.13,-32.97,0,*7C
1521965206.52,55474,11.0,72520.0,1.59,-31.73,-32.79,0,*7E
1521965207.8,55475,11.0,72518.3,1.59,-32.79,-33.73,0,*7D
1521965209.03,55476,11.0,72516.8,1.59,-33.15,-34.07,0,*71
1521965210.29,55477,11.0,72516.5,1.59,-32.79,-33.67,0,*7A
1521965211.56,55478,11.0,72520.3,1.59,-32.29,-33.31,0,*73
1521965212.82,55479,11.0,72522.0,1.65,-31.95,-32.85,0,*77
1521965214.04,55480,11.0,72522.0,1.61,-32.35,-33.27,0,*75
1521965215.26,55481,11.0,72518.0,1.65,-31.61,-32.35,0,*70
1521965216.49,55482,11.0,72518.0,1.65,-31.61,-32.35,0,*73
1521965217.69,55483,11.0,72522.0,1.65,-31.45,-32.35,0,*74
1521965218.88,55484,11.0,72520.5,1.65,-31.29,-32.13,0,*7D
1521965220.13,55485,11.0,72522.0,1.67,-31.23,-32.13,0,*74
1521965221.39,55486,11.0,72518.8,1.69,-31.91,-32.85,0,*7F
1521965222.59,55487,11.0,72516.5,1.69,-32.23,-33.21,0,*7B
1521965223.81,55488,11.0,72518.5,1.69,-32.79,-33.83,0,*73
1521965225.06,55489,11.0,72516.5,1.69,-32.79,-33.73,0,*7D
1521965226.34,55490,11.0,72520.8,1.67,-31.57,-32.45,0,*70
1521965227.54,55491,11.0,72516.8,1.69,-32.39,-33.37,0,*70
1521965228.76,55492,11.0,72518.0,1.69,-32.29,-33.15,0,*72
1521965230.04,55493,11.0,72518.8,1.71,-31.95,-32.97,0,*75
1521965231.32,55494,11.0,72518.3,1.71,-31.57,-32.45,0,*73
1521965232.59,55495,11.0,72520.0,1.73,-31.11,-31.73,0,*74
1521965233.84,55496,11.0,72518.8,1.73,-32.35,-33.31,0,*76
1521965235.11,55497,11.0,72520.3,1.73,-32.97,-33.49,0,*70
1521965236.36,55498,11.0,72516.3,1.75,-32.19,-32.97,0,*7D
1521965237.62,55499,11.0,72518.8,1.75,-31.91,-32.79,0,*7F
1521965238.89,55500,11.0,72516.8,1.75,-31.73,-32.75,0,*7E
1521965240.14,55501,11.0,72522.3,1.77,-32.29,-33.21,0,*71
1521965241.37,55502,11.0,72522.8,1.75,-32.69,-33.61,0,*70
1521965242.6,55503,11.0,72518.3,1.75,-32.79,-33.67,0,*76
1521965243.86,55504,11.0,72520.0,1.77,-32.35,-33.27,0,*7F
1521965245.09,55505,11.0,72522.8,1.75,-32.07,-32.91,0,*71
1521965246.36,55506,11.0,72522.0,1.77,-31.79,-32.75,0,*70
1521965247.59,55507,11.0,72520.0,1.77,-32.69,-33.55,0,*70
1521965248.85,55508,11.0,72520.0,1.79,-32.19,-33.09,0,*7F
1521965250.08,55509,11.0,72516.0,1.79,-32.45,-33.37,0,*7A
1521965251.31,55510,11.0,72522.0,1.79,-32.19,-33.21,0,*7C
1521965252.51,55511,11.0,72520.3,1.79,-32.13,-33.03,0,*77
1521965253.79,55512,11.0,72516.8,1.81,-32.45,-33.49,0,*7E
1521965254.99,55513,11.0,72516.8,1.79,-33.03,-33.95,0,*7A
1521965256.2,55514,11.0,72516.5,1.79,-32.69,-33.55,0,*7C
1521965257.46,55515,11.0,72518.0,1.79,-32.75,-33.73,0,*74
1521965258.66,55516,11.0,72522.8,1.79,-33.21,-34.13,0,*76
1521965259.89,55517,11.0,72518.8,1.79,-32.69,-33.61,0,*78
1521965261.15,55518,11.0,72520.0,1.79,-32.75,-33.73,0,*79
1521965262.38,55519,11.0,72520.8,1.79,-32.85,-33.83,0,*78
1521965263.64,55520,11.0,72520.8,1.79,-32.75,-33.73,0,*72
1521965264.87,55521,11.0,72522.5,1.79,-33.43,-34.47,0,*77
1521965266.08,55522,11.0,72520.3,1.79,-33.21,-34.13,0,*71
1521965267.27,55523,11.0,72522.8,1.79,-32.91,-33.95,0,*73
1521965268.5,55524,11.0,72522.0,1.79,-33.55,-34.53,0,*70
1521965269.73,55525,11.0,72522.5,1.77,-33.55,-34.47,0,*7A
1521965270.96,55526,11.0,72526.0,1.75,-33.61,-34.59,0,*73
1521965272.21,55527,11.0,72520.3,1.75,-32.97,-33.89,0,*70
1521965273.44,55528,11.0,72520.5,1.75,-32.75,-33.83,0,*79
1521965274.69,55529,11.0,72520.0,1.77,-32.51,-33.61,0,*70
1521965275.97,55530,11.0,72518.0,1.77,-33.27,-34.31,0,*7A
1521965277.24,55531,11.0,72518.8,1.77,-33.27,-34.19,0,*71
1521965278.49,55532,11.0,72520.0,1.77,-33.37,-34.31,0,*79
1521965279.72,55533,11.0,72520.0,1.77,-33.03,-33.95,0,*76
1521965280.95,55534,11.0,72522.3,1.77,-33.21,-34.13,0,*78
1521965282.2,55535,11.0,72520.3,1.75,-33.27,-34.35,0,*79
1521965283.45,55536,11.0,72522.8,1.77,-33.21,-34.31,0,*7A
1521965284.71,55537,11.0,72518.5,1.75,-33.09,-34.01,0,*70
1521965285.97,55538,11.0,72522.8,1.77,-32.51,-33.43,0,*70
1521965287.23,55539,11.0,72518.8,1.75,-31.91,-32.75,0,*78
1521965288.51,55540,11.0,72520.8,1.77,-32.45,-33.43,0,*7A
1521965289.78,55541,11.0,72522.0,1.77,-32.51,-33.43,0,*7E
1521965291.04,55542,11.0,72518.8,1.77,-31.61,-32.69,0,*74
1521965292.3,55543,11.0,72516.8,1.79,-32.45,-33.27,0,*75
1521965293.58,55544,11.0,72522.8,1.81,-31.95,-32.85,0,*72
1521965294.83,55545,11.0,72520.0,1.81,-31.45,-32.45,0,*72
1521965296.09,55546,11.0,72520.5,1.79,-32.19,-33.09,0,*75
1521965297.34,55547,11.06,72526.8,1.81,-32.57,-33.61,0,*77
1521965298.57,55548,11.0,72520.3,1.81,-32.69,-33.67,0,*73
1521965299.8,55549,11.0,72520.0,1.83,-32.51,-33.43,0,*7D
1521965301.02,55550,11.0,72520.8,1.83,-32.35,-33.27,0,*75
1521965302.3,55551,11.06,72526.0,1.85,-32.07,-33.09,0,*7F
1521965303.53,55552,11.0,72520.3,1.85,-32.23,-33.15,0,*77
1521965304.78,55553,11.0,72522.5,1.85,-32.39,-33.43,0,*7E
1521965306.06,55554,11.06,72522.8,1.85,-32.07,-33.09,0,*7A
1521965307.3,55555,11.0,72522.3,1.83,-32.63,-33.61,0,*71